Block Island, RI

4:22 PM EST on February 23, 2018 (GMT -0500)
Block Island State

Weather History for KBID - October, 2012

Change the Weather History Date:

Saturday, October 6, 2012

  Actual Average Record
Temperature  
Mean Temperature 63 °F -  
Max Temperature 71 °F 63 °F 75 °F (1959)
Min Temperature 55 °F 51 °F 36 °F (1965)
Degree Days  
Heating Degree Days 2    
Growing Degree Days 13 (Base 50)    
Moisture  
Dew Point 60 °F    
Average Humidity 80    
Maximum Humidity 94    
Minimum Humidity 63    
Precipitation  
Precipitation 0.00 in - - ()
Sea Level Pressure  
Sea Level Pressure 29.88 in    
Wind  
Wind Speed 12 mph (SW)    
Max Wind Speed 20 mph    
Max Gust Speed 26 mph    
Visibility 10 miles    
Events      
Averages and records for this station are not official NWS values.
T = Trace of Precipitation, MM = Missing Value Source: NWS Daily Summary

Daily Weather History Graph

Daily Weather History Graph

Search for Another Location

Airport or City:

Trip Planner

Search our weather history database for the weather conditions in past years. The results will help you decide how hot, cold, wet, or windy it might be!

Date:

Astronomy

Oct. 06, 2012 Rise Set
Actual Time 6:48 AM EDT 6:19 PM EDT
Civil Twilight 6:21 AM EDT 6:46 PM EDT
Nautical Twilight 5:49 AM EDT 7:18 PM EDT
Astronomical Twilight 5:17 AM EDT 7:50 PM EDT
Moon 10:29 PM EDT (10/6) 12:43 PM EDT (10/6)
Length of Visible Light 12h 25m
Length of Day
11h 30m
Waning Gibbous, 65% of the Moon is Illuminated
Oct 6
Waning Gibbous
Oct 8
Last Quarter
Oct 15
New
Oct 21
First Quarter
Oct 29
Full

Hourly Weather History & Observations

Time (EDT) Temp. Dew Point Humidity Pressure Visibility Wind Dir Wind Speed Gust Speed Precip Events Conditions
12:15 AM 64.4 °F 60.8 °F 88% 29.96 in 10.0 mi SW 10.4 mph - N/A   Clear
12:35 AM 64.4 °F 60.8 °F 88% 29.95 in 10.0 mi SW 10.4 mph - N/A   Clear
12:55 AM 64.4 °F 60.8 °F 88% 29.95 in 10.0 mi SW 9.2 mph - N/A   Clear
1:15 AM 64.4 °F 60.8 °F 88% 29.95 in 10.0 mi SSW 9.2 mph - N/A   Clear
1:35 AM 64.4 °F 60.8 °F 88% 29.95 in 10.0 mi SW 10.4 mph - N/A   Clear
1:55 AM 64.4 °F 60.8 °F 88% 29.93 in 10.0 mi SSW 9.2 mph - N/A   Clear
2:15 AM 64.4 °F 60.8 °F 88% 29.92 in 10.0 mi SW 10.4 mph - N/A   Clear
2:35 AM 64.4 °F 60.8 °F 88% 29.92 in 10.0 mi WSW 8.1 mph - N/A   Clear
2:55 AM 64.4 °F 60.8 °F 88% 29.92 in 10.0 mi WSW 9.2 mph - N/A   Clear
3:15 AM 64.4 °F 60.8 °F 88% 29.91 in 10.0 mi WSW 9.2 mph - N/A   Clear
3:35 AM 64.4 °F 60.8 °F 88% 29.91 in 10.0 mi SSW 12.7 mph - N/A   Clear
3:55 AM 64.4 °F 62.6 °F 94% 29.91 in 10.0 mi SW 11.5 mph - N/A   Clear
4:15 AM 64.4 °F 60.8 °F 88% 29.91 in 10.0 mi SW 8.1 mph - N/A   Clear
4:55 AM 64.4 °F 62.6 °F 94% 29.91 in 10.0 mi SW 10.4 mph - N/A   Clear
5:35 AM 64.4 °F 62.6 °F 94% 29.91 in 10.0 mi SW 11.5 mph - N/A   Clear
5:55 AM 64.4 °F 62.6 °F 94% 29.90 in 10.0 mi SW 11.5 mph - N/A   Clear
6:15 AM 64.4 °F 62.6 °F 94% 29.90 in 10.0 mi SW 10.4 mph - N/A   Clear
6:35 AM 64.4 °F 62.6 °F 94% 29.90 in 10.0 mi SW 10.4 mph - N/A   Clear
6:55 AM 64.4 °F 62.6 °F 94% 29.89 in 8.0 mi SW 11.5 mph - N/A   Clear
7:15 AM 66.2 °F 62.6 °F 88% 29.90 in 8.0 mi SW 10.4 mph - N/A   Clear
7:35 AM 66.2 °F 62.6 °F 88% 29.89 in 9.0 mi SW 12.7 mph - N/A   Clear
7:55 AM 66.2 °F 62.6 °F 88% 29.90 in 9.0 mi SW 11.5 mph - N/A   Clear
8:15 AM 66.2 °F 62.6 °F 88% 29.89 in 9.0 mi SSW 11.5 mph - N/A   Clear
8:35 AM 68.0 °F 62.6 °F 83% 29.89 in 10.0 mi SW 12.7 mph 18.4 mph N/A   Clear
8:55 AM 69.8 °F 62.6 °F 78% 29.89 in 10.0 mi SW 15.0 mph 19.6 mph N/A   Clear
9:15 AM 69.8 °F 62.6 °F 78% 29.89 in 10.0 mi SSW 16.1 mph 19.6 mph N/A   Clear
9:35 AM 69.8 °F 62.6 °F 78% 29.89 in 10.0 mi SSW 13.8 mph - N/A   Clear
9:55 AM 69.8 °F 62.6 °F 78% 29.89 in 10.0 mi SSW 16.1 mph 20.7 mph N/A   Clear
10:15 AM 69.8 °F 62.6 °F 78% 29.89 in 10.0 mi SSW 11.5 mph - N/A   Clear
10:35 AM 71.6 °F 64.4 °F 78% 29.88 in 10.0 mi SSW 12.7 mph - N/A   Clear
10:55 AM 71.6 °F 64.4 °F 78% 29.88 in 10.0 mi SSW 16.1 mph - N/A   Clear
11:15 AM 71.6 °F 64.4 °F 78% 29.87 in 10.0 mi SSW 16.1 mph - N/A   Clear
11:35 AM 71.6 °F 64.4 °F 78% 29.87 in 10.0 mi SSW 16.1 mph 21.9 mph N/A   Clear
11:55 AM 71.6 °F 64.4 °F 78% 29.87 in 10.0 mi SW 16.1 mph 26.5 mph N/A   Clear
12:15 PM 71.6 °F 64.4 °F 78% 29.86 in 10.0 mi SW 12.7 mph 23.0 mph N/A   Clear
12:35 PM 71.6 °F 64.4 °F 78% 29.85 in 10.0 mi SSW 16.1 mph 23.0 mph N/A   Clear
12:55 PM 71.6 °F 64.4 °F 78% 29.84 in 10.0 mi SSW 17.3 mph 23.0 mph N/A   Clear
1:15 PM 71.6 °F 64.4 °F 78% 29.83 in 10.0 mi SSW 17.3 mph 24.2 mph N/A   Clear
1:35 PM 71.6 °F 64.4 °F 78% 29.82 in 10.0 mi SSW 19.6 mph 23.0 mph N/A   Clear
1:55 PM 71.6 °F 64.4 °F 78% 29.81 in 10.0 mi SSW 18.4 mph 24.2 mph N/A   Clear
2:15 PM 71.6 °F 64.4 °F 78% 29.81 in 10.0 mi SSW 16.1 mph 23.0 mph N/A   Clear
2:35 PM 71.6 °F 64.4 °F 78% 29.81 in 10.0 mi SSW 16.1 mph 25.3 mph N/A   Clear
2:55 PM 71.6 °F 64.4 °F 78% 29.80 in 10.0 mi SSW 17.3 mph 24.2 mph N/A   Clear
3:15 PM 71.6 °F 64.4 °F 78% 29.80 in 10.0 mi SSW 18.4 mph 23.0 mph N/A   Clear
3:35 PM 71.6 °F 64.4 °F 78% 29.80 in 10.0 mi SSW 16.1 mph 23.0 mph N/A   Clear
3:55 PM 71.6 °F 64.4 °F 78% 29.79 in 10.0 mi SSW 18.4 mph 23.0 mph N/A   Clear
4:35 PM 69.8 °F 64.4 °F 83% 29.79 in 10.0 mi SSW 16.1 mph 24.2 mph N/A   Clear
4:55 PM 69.8 °F 62.6 °F 78% 29.79 in 10.0 mi SSW 15.0 mph 23.0 mph N/A   Clear
5:15 PM 69.8 °F 62.6 °F 78% 29.80 in 10.0 mi SSW 15.0 mph 20.7 mph N/A   Scattered Clouds
5:35 PM 68.0 °F 62.6 °F 83% 29.80 in 10.0 mi SSW 15.0 mph - N/A   Overcast
5:55 PM 68.0 °F 62.6 °F 83% 29.80 in 10.0 mi SSW 16.1 mph 21.9 mph N/A   Mostly Cloudy
6:15 PM 69.8 °F 62.6 °F 78% 29.81 in 10.0 mi SW 18.4 mph 21.9 mph N/A   Overcast
6:55 PM 68.0 °F 62.6 °F 83% 29.83 in 10.0 mi SW 16.1 mph 24.2 mph N/A   Mostly Cloudy
7:15 PM 68.0 °F 62.6 °F 83% 29.83 in 10.0 mi SW 17.3 mph 21.9 mph N/A   Overcast
7:35 PM 68.0 °F 64.4 °F 88% 29.84 in 10.0 mi SW 15.0 mph 19.6 mph N/A   Overcast
7:55 PM 62.6 °F 53.6 °F 72% 29.87 in 10.0 mi NNW 9.2 mph 20.7 mph N/A   Overcast
8:15 PM 60.8 °F 51.8 °F 72% 29.87 in 10.0 mi NNW 11.5 mph 21.9 mph N/A   Mostly Cloudy
8:35 PM 60.8 °F 48.2 °F 63% 29.88 in 10.0 mi NNW 12.7 mph 19.6 mph N/A   Partly Cloudy
8:55 PM 59.0 °F 48.2 °F 67% 29.90 in 10.0 mi NNW 9.2 mph 17.3 mph N/A   Clear
9:15 PM 59.0 °F 48.2 °F 67% 29.90 in 10.0 mi NNW 10.4 mph 17.3 mph N/A   Scattered Clouds
9:35 PM 59.0 °F 46.4 °F 63% 29.92 in 10.0 mi NNW 15.0 mph 20.7 mph N/A   Scattered Clouds
9:55 PM 57.2 °F 46.4 °F 67% 29.93 in 10.0 mi NW 11.5 mph 20.7 mph N/A   Mostly Cloudy
10:15 PM 57.2 °F 44.6 °F 63% 29.93 in 10.0 mi NW 13.8 mph 24.2 mph N/A   Mostly Cloudy
10:35 PM 57.2 °F 44.6 °F 63% 29.94 in 10.0 mi NNW 11.5 mph 20.7 mph N/A   Partly Cloudy
10:55 PM 57.2 °F 44.6 °F 63% 29.95 in 10.0 mi NNW 13.8 mph 24.2 mph N/A   Clear
11:15 PM 57.2 °F 44.6 °F 63% 29.96 in 10.0 mi NNW 12.7 mph 21.9 mph N/A   Clear
11:35 PM 55.4 °F 42.8 °F 63% 29.97 in 10.0 mi NNW 10.4 mph 20.7 mph N/A   Clear
11:55 PM 55.4 °F 42.8 °F 63% 29.97 in 10.0 mi NNW 6.9 mph 16.1 mph N/A   Clear